Weather History for KAKO - February, 2013

Change the Weather History Date:

Sunday, February 10, 2013

  Actual Average Record
Temperature  
Mean Temperature 24 °F 30 °F  
Max Temperature 33 °F 42 °F 73 °F (1962)
Min Temperature 15 °F 18 °F -15 °F (1939)
Degree Days  
Heating Degree Days 41    
Month to date heating degree days 282  
Cooling Degree Days 0    
Month to date cooling degree days 0  
Moisture  
Dew Point 18 °F    
Average Humidity 75    
Maximum Humidity 96    
Minimum Humidity 54    
Precipitation  
Precipitation T in 0.01 in 0.52 in (1993)
Month to date precipitation T 0.14  
Year to date precipitation 0.03 0.44  
Sea Level Pressure  
Sea Level Pressure 29.70 in    
Wind  
Wind Speed 26 mph (NW)    
Max Wind Speed 38 mph    
Max Gust Speed 47 mph    
Visibility 6 miles    
Events Snow    
T = Trace of Precipitation, MM = Missing Value Source: NWS Daily Summary

Daily Weather History Graph

Daily Weather History Graph

Search for Another Location

Airport or City:

Trip Planner

Search our weather history database for the weather conditions in past years. The results will help you decide how hot, cold, wet, or windy it might be!

Date:

Astronomy

Feb. 10, 2013 Rise Set
Actual Time 6:51 AM MST 5:22 PM MST
Civil Twilight 6:23 AM MST 5:51 PM MST
Nautical Twilight 5:51 AM MST 6:23 PM MST
Astronomical Twilight 5:20 AM MST 6:54 PM MST
Moon 6:42 AM MST (2/10) 6:16 PM MST (2/10)
Length of Visible Light 11h 27m
Length of Day
10h 31m
New Moon, 0% of the Moon is Illuminated
Feb 10
New Moon
Feb 17
First Quarter
Feb 25
Full
Mar 4
Last Quarter
Mar 11
New

Hourly Weather History & Observations

Time (MST) Temp. Windchill Dew Point Humidity Pressure Visibility Wind Dir Wind Speed Gust Speed Precip Events Conditions
12:53 AM 24.1 °F 8.0 °F 19.9 °F 84% 29.52 in 4.0 mi NW 25.3 mph 33.4 mph 0.00 in Snow Light Snow
1:29 AM 24.8 °F 8.1 °F 19.4 °F 80% 29.47 in 4.0 mi NW 28.8 mph 36.8 mph 0.00 in Snow Light Snow
1:39 AM 23.0 °F 6.3 °F 21.2 °F 93% 29.48 in 3.0 mi NW 26.5 mph 34.5 mph 0.00 in Snow Light Snow
1:48 AM 23.0 °F 7.2 °F 21.2 °F 93% 29.48 in 2.0 mi NW 23.0 mph 31.1 mph 0.00 in Snow Light Snow
1:53 AM 23.0 °F 7.6 °F 21.0 °F 92% 29.52 in 2.0 mi NW 21.9 mph 31.1 mph 0.00 in Snow Light Snow
2:08 AM 24.8 °F 8.4 °F 21.2 °F 86% 29.47 in 3.0 mi NW 27.6 mph 38.0 mph 0.00 in Snow Light Snow
2:24 AM 24.8 °F 7.1 °F 21.2 °F 86% 29.48 in 3.0 mi NW 33.4 mph 43.7 mph 0.00 in Snow Light Snow
2:46 AM 24.8 °F 7.1 °F 21.2 °F 86% 29.49 in 2.5 mi NW 33.4 mph 44.9 mph 0.00 in Snow Light Snow
2:53 AM 25.0 °F 7.8 °F 21.0 °F 85% 29.54 in 1.8 mi NW 31.1 mph 40.3 mph 0.00 in Snow Light Snow
2:57 AM 24.8 °F 7.9 °F 21.2 °F 86% 29.50 in 1.2 mi NNW 29.9 mph 39.1 mph 0.00 in Snow Light Snow
2:59 AM 24.8 °F 7.6 °F 21.2 °F 86% 29.50 in 0.8 mi NNW 31.1 mph 38.0 mph 0.00 in Snow Light Snow
3:12 AM 24.8 °F 8.7 °F 21.2 °F 86% 29.50 in 1.0 mi NNW 26.5 mph 40.3 mph 0.00 in Snow Light Snow
3:27 AM 24.8 °F 9.6 °F 21.2 °F 86% 29.51 in 0.8 mi NW 23.0 mph 35.7 mph 0.00 in Snow Light Snow
3:31 AM 24.8 °F 9.0 °F 21.2 °F 86% 29.51 in 1.0 mi NW 25.3 mph 31.1 mph 0.00 in Snow Light Snow
3:39 AM 24.8 °F 8.1 °F 21.2 °F 86% 29.51 in 1.5 mi NW 28.8 mph 39.1 mph 0.00 in Snow Light Snow
3:53 AM 24.1 °F 7.1 °F 21.0 °F 88% 29.58 in 1.2 mi NW 28.8 mph 39.1 mph 0.00 in Snow Light Snow
4:04 AM 24.8 °F 8.7 °F 19.4 °F 80% 29.51 in 1.8 mi NW 26.5 mph 33.4 mph 0.00 in Snow Light Snow
4:14 AM 24.8 °F 8.4 °F 21.2 °F 86% 29.52 in 1.0 mi NW 27.6 mph 36.8 mph 0.00 in Snow Light Snow
4:33 AM 24.8 °F 7.9 °F 19.4 °F 80% 29.53 in 1.5 mi NW 29.9 mph 39.1 mph 0.00 in Snow Light Snow
4:51 AM 24.8 °F 8.4 °F 19.4 °F 80% 29.54 in 2.5 mi NW 27.6 mph 38.0 mph 0.00 in Snow Light Snow
4:53 AM 25.0 °F 8.6 °F 19.9 °F 81% 29.61 in 2.5 mi NW 27.6 mph 38.0 mph 0.00 in Snow Light Snow
5:12 AM 24.8 °F 8.1 °F 19.4 °F 80% 29.55 in 5.0 mi NW 28.8 mph 38.0 mph 0.00 in Snow Light Snow
5:20 AM 24.8 °F 8.7 °F 19.4 °F 80% 29.55 in 8.0 mi NW 26.5 mph 36.8 mph 0.00 in Snow Light Snow
6:53 AM 25.0 °F 8.1 °F 19.0 °F 78% 29.70 in 10.0 mi NW 29.9 mph 38.0 mph N/A   Overcast
7:53 AM 26.1 °F 9.8 °F 19.0 °F 75% 29.74 in 10.0 mi NW 28.8 mph 35.7 mph 0.00 in   Overcast
8:21 AM 26.6 °F 10.0 °F 19.4 °F 74% 29.67 in 8.0 mi NW 31.1 mph 39.1 mph 0.00 in   Overcast
8:53 AM 27.0 °F 11.0 °F 19.0 °F 72% 29.78 in 10.0 mi NW 28.8 mph 42.6 mph 0.00 in   Overcast
9:53 AM 28.9 °F 13.7 °F 19.9 °F 69% 29.80 in 10.0 mi NW 28.8 mph 34.5 mph N/A   Overcast
10:53 AM 30.9 °F 15.9 °F 19.0 °F 61% 29.81 in 10.0 mi NNW 31.1 mph 39.1 mph N/A   Overcast
11:53 AM 32.0 °F 17.4 °F 19.9 °F 61% 29.83 in 10.0 mi NNW 31.1 mph 46.0 mph N/A   Overcast
12:53 PM 32.0 °F 16.7 °F 19.9 °F 61% 29.84 in 10.0 mi NW 34.5 mph 42.6 mph N/A   Overcast
1:53 PM 32.0 °F 17.0 °F 18.0 °F 56% 29.86 in 10.0 mi NNW 33.4 mph 41.4 mph N/A   Mostly Cloudy
2:53 PM 30.9 °F 16.9 °F 18.0 °F 59% 29.90 in 10.0 mi NNW 26.5 mph 39.1 mph N/A   Scattered Clouds
3:53 PM 28.9 °F 14.3 °F 16.0 °F 58% 29.94 in 10.0 mi North 26.5 mph 36.8 mph N/A   Scattered Clouds
4:53 PM 27.0 °F 11.6 °F 14.0 °F 58% 29.98 in 10.0 mi NNW 26.5 mph 35.7 mph N/A   Partly Cloudy
5:53 PM 24.1 °F 10.6 °F 14.0 °F 65% 30.01 in 10.0 mi NNW 17.3 mph - N/A   Clear
6:53 PM 21.9 °F 7.3 °F 14.0 °F 72% 30.04 in 10.0 mi North 18.4 mph - N/A   Clear
7:53 PM 19.9 °F 9.3 °F 12.9 °F 74% 30.07 in 10.0 mi NNW 9.2 mph - N/A   Clear
8:53 PM 19.0 °F 7.5 °F 10.9 °F 71% 30.12 in 10.0 mi WNW 10.4 mph - N/A   Clear
9:53 PM 18.0 °F 4.8 °F 10.9 °F 74% 30.13 in 10.0 mi NNW 12.7 mph - N/A   Clear
10:53 PM 16.0 °F 3.6 °F 10.0 °F 77% 30.14 in 10.0 mi NW 10.4 mph - N/A   Clear
11:53 PM 15.1 °F 1.8 °F 9.0 °F 77% 30.15 in 10.0 mi NW 11.5 mph - N/A   Clear